Date Time,Air Temp,Sky Temp,Clarity,Light Level,Rain Sensor,Readings
2010-03-04 00:00:07,15.8,-23.5,39.3,0.1,2.3,111
2010-03-04 00:05:07,15.8,-24.1,39.9,0.1,2.3,112
2010-03-04 00:10:07,15.8,-24.6,40.4,0.1,2.3,111
2010-03-04 00:15:07,15.8,-24.9,40.7,0.1,2.3,112
2010-03-04 00:20:07,15.8,-25.8,41.6,0.1,2.3,111
2010-03-04 00:25:07,15.7,-26.1,41.8,0.1,2.3,111
2010-03-04 00:30:07,15.7,-25.9,41.5,0.1,2.3,112
2010-03-04 00:35:07,15.6,-25.5,41.1,0.1,2.3,111
2010-03-04 00:40:07,15.6,-25.2,40.7,0.1,2.3,112
2010-03-04 00:45:07,15.5,-24.7,40.2,0.1,2.3,112
2010-03-04 00:50:07,15.6,-24.5,40.0,0.1,2.2,111
2010-03-04 00:55:07,15.6,-24.3,39.8,0.1,2.2,112
2010-03-04 01:00:07,15.6,-24.0,39.6,0.1,2.2,111
2010-03-04 01:05:07,15.6,-24.0,39.6,0.1,2.3,112
2010-03-04 01:10:07,15.6,-23.9,39.5,0.1,2.3,111
2010-03-04 01:15:07,15.6,-23.9,39.4,0.1,2.3,111
2010-03-04 01:20:07,15.6,-24.0,39.5,0.1,2.3,112
2010-03-04 01:25:07,15.6,-24.4,39.9,0.1,2.3,111
2010-03-04 01:30:07,15.6,-24.5,40.1,0.1,2.3,112
2010-03-04 01:35:07,15.6,-24.9,40.4,0.1,2.3,111
2010-03-04 01:40:07,15.5,-25.6,41.2,0.1,2.3,112
2010-03-04 01:45:07,15.6,-26.1,41.7,0.1,2.3,111
2010-03-04 01:50:07,15.6,-26.7,42.2,0.2,2.3,111
2010-03-04 01:55:07,15.6,-27.4,43.0,0.1,2.3,112
2010-03-04 02:00:07,15.6,-27.5,43.1,0.1,2.2,112
2010-03-04 02:05:07,15.6,-27.8,43.4,0.1,2.2,111
2010-03-04 02:10:07,15.6,-27.8,43.3,0.1,2.2,112
2010-03-04 02:15:07,15.6,-27.6,43.2,0.1,2.2,111
2010-03-04 02:20:07,15.7,-27.5,43.2,0.1,2.2,111
2010-03-04 02:25:07,15.5,-27.0,42.6,0.1,2.2,112
2010-03-04 02:30:07,15.6,-26.8,42.3,0.1,2.1,111
2010-03-04 02:35:07,15.6,-26.2,41.8,0.1,2.1,111
2010-03-04 02:40:07,15.5,-24.9,40.5,0.1,2.2,112
2010-03-04 02:45:07,15.5,-24.3,39.9,0.1,2.2,111
2010-03-04 02:50:07,15.5,-23.7,39.2,0.1,2.2,111
2010-03-04 02:55:07,15.5,-23.0,38.5,0.1,2.3,112
2010-03-04 03:00:07,15.4,-22.3,37.8,0.1,2.3,112
2010-03-04 03:05:07,15.4,-21.7,37.0,0.1,2.3,111
2010-03-04 03:10:07,15.3,-21.2,36.5,0.1,2.3,112
2010-03-04 03:15:07,15.3,-20.6,35.9,0.1,2.3,111
2010-03-04 03:20:07,15.3,-20.2,35.5,0.1,2.3,112
2010-03-04 03:25:07,15.3,-19.9,35.2,0.1,2.4,111
2010-03-04 03:30:07,15.3,-19.6,34.9,0.1,2.4,112
2010-03-04 03:35:07,15.3,-19.1,34.4,0.1,2.4,111
2010-03-04 03:40:07,15.3,-19.1,34.3,0.1,2.4,112
2010-03-04 03:45:07,15.3,-19.0,34.3,0.1,2.4,111
2010-03-04 03:50:07,15.3,-18.9,34.3,0.1,2.4,112
2010-03-04 03:55:07,15.4,-19.1,34.4,0.1,2.4,112
2010-03-04 04:00:07,15.4,-19.2,34.5,0.1,2.3,111
2010-03-04 04:05:07,15.3,-19.5,34.8,0.1,2.4,112
2010-03-04 04:10:07,15.3,-19.4,34.7,0.1,2.4,112
2010-03-04 04:15:07,15.4,-19.6,35.0,0.1,2.4,111
2010-03-04 04:20:07,15.4,-19.7,35.0,0.1,2.4,112
2010-03-04 04:25:07,15.4,-19.7,35.1,0.1,2.4,111
2010-03-04 04:30:07,15.4,-19.5,34.9,0.1,2.4,112
2010-03-04 04:35:07,15.4,-19.5,34.9,0.1,2.4,111
2010-03-04 04:40:07,15.3,-19.7,35.0,0.1,2.4,111
2010-03-04 04:45:07,15.3,-20.1,35.4,0.1,2.4,112
2010-03-04 04:50:07,15.3,-20.4,35.7,0.1,2.4,112
2010-03-04 04:55:07,15.3,-20.6,35.9,0.1,2.4,111
2010-03-04 05:00:07,15.4,-20.8,36.2,0.1,2.4,112
2010-03-04 05:05:07,15.5,-21.5,37.0,0.1,2.3,111
2010-03-04 05:10:07,15.5,-21.9,37.5,0.1,2.3,112
2010-03-04 05:15:07,15.5,-22.7,38.2,0.1,2.3,112
2010-03-04 05:20:07,15.5,-23.2,38.7,0.1,2.3,111
2010-03-04 05:25:07,15.6,-24.1,39.7,0.1,2.3,111
2010-03-04 05:30:07,15.6,-24.9,40.5,0.1,2.3,112
2010-03-04 05:35:07,15.6,-25.8,41.4,0.1,2.3,111
2010-03-04 05:40:07,15.5,-27.2,42.7,0.1,2.3,111
2010-03-04 05:45:07,15.5,-27.8,43.3,0.2,2.3,112
2010-03-04 05:50:07,15.5,-28.3,43.8,0.3,2.3,111
2010-03-04 05:55:07,15.5,-28.8,44.2,0.5,2.3,111
2010-03-04 06:00:07,15.4,-28.7,44.2,1.0,2.3,112
2010-03-04 06:05:07,15.4,-28.4,43.8,2.0,2.3,111
2010-03-04 06:10:07,15.4,-27.5,43.0,4.1,2.3,112
2010-03-04 06:15:07,15.4,-26.3,41.7,7.8,2.3,111
2010-03-04 06:20:07,15.4,-25.5,40.9,13.3,2.3,112
2010-03-04 06:25:07,15.5,-24.6,40.1,19.3,2.3,111
2010-03-04 06:30:07,15.6,-23.8,39.4,24.2,2.3,112
2010-03-04 06:35:07,15.7,-23.2,38.9,27.4,2.3,111
2010-03-04 06:40:07,15.7,-22.7,38.5,29.2,2.3,111
2010-03-04 06:45:07,15.6,-22.2,37.8,30.2,2.3,112
2010-03-04 06:50:07,15.7,-21.5,37.2,30.9,2.3,112
2010-03-04 06:55:07,15.8,-20.9,36.6,31.2,2.3,111
2010-03-04 07:00:07,15.8,-20.6,36.4,31.5,2.3,112
2010-03-04 07:05:07,15.8,-20.1,35.9,31.7,2.2,112
2010-03-04 07:10:07,15.8,-19.8,35.6,31.9,2.1,111
2010-03-04 07:15:07,15.9,-19.5,35.5,32.0,2.1,112
2010-03-04 07:20:07,15.9,-19.5,35.4,32.1,2.2,112
2010-03-04 07:25:07,16.0,-19.6,35.6,32.1,2.2,111
2010-03-04 07:30:07,16.0,-19.9,35.9,32.2,2.3,112
2010-03-04 07:35:07,16.0,-20.1,36.2,32.2,2.2,111
2010-03-04 07:40:07,16.0,-20.8,36.8,32.3,2.2,112
2010-03-04 07:45:07,16.0,-21.4,37.4,32.3,2.2,111
2010-03-04 07:50:07,16.0,-21.8,37.8,32.3,2.3,111
2010-03-04 07:55:07,16.2,-21.9,38.1,32.3,2.3,112
2010-03-04 08:00:07,16.4,-22.2,38.5,32.4,2.3,112
2010-03-04 08:05:07,16.5,-22.3,38.7,32.4,2.3,111
2010-03-04 08:10:07,16.5,-22.0,38.6,32.4,2.3,112
2010-03-04 08:15:07,16.6,-21.4,38.0,32.4,2.3,111
2010-03-04 08:20:07,16.7,-20.6,37.3,32.4,2.3,112
2010-03-04 08:25:07,16.8,-19.9,36.7,32.4,2.4,111
2010-03-04 08:30:07,16.8,-18.5,35.3,32.4,2.5,112
2010-03-04 08:35:07,16.9,-16.8,33.7,32.5,2.6,112
2010-03-04 08:40:07,17.1,-14.1,31.2,32.5,2.3,111
2010-03-04 08:45:07,17.3,-13.5,30.8,32.5,2.3,112
2010-03-04 08:50:07,17.5,-11.7,29.1,32.5,2.3,111
2010-03-04 08:55:07,17.6,-12.7,30.3,32.5,2.3,112
2010-03-04 09:00:07,17.5,-11.7,29.2,32.5,2.3,111
2010-03-04 09:05:07,17.6,-11.0,28.6,32.5,2.3,111
2010-03-04 09:10:07,17.6,-11.2,28.8,32.5,2.3,112
2010-03-04 09:15:07,17.7,-11.3,29.0,32.5,2.3,112
2010-03-04 09:20:07,17.7,-11.8,29.5,32.5,2.3,111
2010-03-04 09:25:07,17.7,-12.5,30.2,32.5,2.3,112
2010-03-04 09:30:07,18.0,-11.8,29.8,32.5,2.3,111
2010-03-04 09:35:07,18.1,-12.9,31.0,32.5,2.3,111
2010-03-04 09:40:07,18.2,-15.9,34.1,32.5,2.2,112
2010-03-04 09:45:07,18.3,-15.2,33.5,32.5,2.1,111
2010-03-04 09:50:07,18.4,-13.5,31.9,32.5,1.8,111
2010-03-04 09:55:07,18.5,-13.9,32.4,32.5,1.9,112
2010-03-04 10:00:07,18.5,-14.6,33.2,32.5,1.9,111
2010-03-04 10:05:07,18.4,-11.5,29.9,32.5,2.1,112
2010-03-04 10:10:07,18.9,-15.2,34.1,32.6,2.3,111
2010-03-04 10:15:07,19.1,-16.4,35.6,32.6,2.3,112
2010-03-04 10:20:07,19.6,-11.1,30.6,32.6,2.5,111
2010-03-04 10:25:07,19.6,-17.1,36.7,32.6,2.5,112
2010-03-04 10:30:07,19.3,-21.4,40.7,32.6,2.4,112
2010-03-04 10:35:07,19.4,-22.9,42.3,32.6,2.5,111
2010-03-04 10:40:07,19.7,-20.4,40.1,32.6,2.5,112
2010-03-04 10:45:07,20.1,-18.6,38.7,32.6,2.3,111
2010-03-04 10:50:07,20.4,-18.5,38.9,32.6,2.3,111
2010-03-04 10:55:07,20.7,-18.1,38.8,32.6,2.3,112
2010-03-04 11:00:07,20.7,-12.6,33.3,32.6,2.3,111
2010-03-04 11:05:07,20.8,-16.1,36.9,32.6,2.2,112
2010-03-04 11:10:07,20.5,-20.4,40.9,32.6,2.3,111
2010-03-04 11:15:07,20.4,-22.4,42.8,32.6,2.3,112
2010-03-04 11:20:07,20.3,-23.7,44.0,32.6,2.3,111
2010-03-04 11:25:07,20.2,-23.9,44.1,32.6,2.3,112
2010-03-04 11:30:07,20.1,-24.4,44.5,32.6,2.3,111
2010-03-04 11:35:07,20.4,-24.2,44.6,32.6,2.3,112
2010-03-04 11:40:07,20.9,-23.4,44.4,32.6,2.3,112
2010-03-04 11:45:07,21.5,-24.2,45.7,32.6,2.3,111
2010-03-04 11:50:07,22.0,-24.6,46.6,32.6,2.3,111
2010-03-04 11:55:07,22.0,-24.9,46.9,32.6,2.3,111
2010-03-04 12:00:07,22.3,-23.3,45.6,32.6,2.2,112
2010-03-04 12:05:07,22.5,-23.8,46.3,32.6,2.2,111
2010-03-04 12:10:07,22.8,-21.2,43.9,32.6,2.3,112
2010-03-04 12:15:07,23.5,-22.0,45.4,32.6,2.3,111
2010-03-04 12:20:07,23.6,-21.6,45.2,32.6,2.3,112
2010-03-04 12:25:07,23.7,-21.0,44.7,32.6,2.3,111
2010-03-04 12:30:07,23.7,-21.3,44.9,32.6,2.3,112
2010-03-04 12:35:07,23.5,-19.8,43.4,32.6,2.3,111
2010-03-04 12:40:07,23.5,-19.2,42.7,32.6,2.3,111
2010-03-04 12:45:07,23.5,-20.2,43.8,32.6,2.3,112
2010-03-04 12:50:07,23.5,-20.3,43.8,32.6,2.3,111
2010-03-04 12:55:07,23.3,-20.8,44.1,32.6,2.3,112
2010-03-04 13:00:07,22.9,-20.4,43.3,32.6,2.3,112
2010-03-04 13:05:07,22.8,-20.2,43.0,32.6,2.3,111
2010-03-04 13:10:07,22.7,-21.0,43.6,32.6,2.3,112
2010-03-04 13:15:07,22.5,-22.0,44.6,32.6,2.3,111
2010-03-04 13:20:07,22.4,-23.8,46.3,32.6,2.3,112
2010-03-04 13:25:07,22.5,-22.4,44.9,32.6,2.3,111
2010-03-04 13:30:07,22.9,-23.2,46.1,32.6,2.3,111
2010-03-04 13:35:07,23.0,-23.3,46.2,32.6,2.3,112
2010-03-04 13:40:07,23.0,-23.0,46.1,32.6,2.3,111
2010-03-04 13:45:07,23.1,-24.0,47.1,32.6,2.3,112
2010-03-04 13:50:07,23.2,-23.5,46.7,32.6,2.3,112
2010-03-04 13:55:07,23.2,-23.5,46.8,32.6,2.3,111
2010-03-04 14:00:07,23.1,-22.8,45.9,32.6,2.3,112
2010-03-04 14:05:07,23.1,-22.0,45.2,32.6,2.3,111
2010-03-04 14:10:07,23.2,-23.4,46.6,32.6,2.3,112
2010-03-04 14:15:07,22.7,-23.9,46.6,32.6,2.3,111
2010-03-04 14:20:07,22.4,-23.8,46.1,32.6,2.3,112
2010-03-04 14:25:07,22.3,-23.5,45.8,32.6,2.3,112
2010-03-04 14:30:07,22.4,-21.9,44.3,32.6,2.3,111
2010-03-04 14:35:07,22.6,-22.3,44.9,32.6,2.3,111
2010-03-04 14:40:07,22.6,-23.0,45.6,32.6,2.3,112
2010-03-04 14:45:07,22.6,-23.7,46.2,32.6,2.3,111
2010-03-04 14:50:07,22.5,-23.5,45.9,32.6,2.3,112
2010-03-04 14:55:07,22.7,-22.3,45.0,32.6,2.3,112
2010-03-04 15:00:07,22.7,-24.7,47.5,32.6,2.3,111
2010-03-04 15:05:07,22.1,-25.4,47.5,32.6,2.3,112
2010-03-04 15:10:07,21.9,-24.2,46.1,32.6,2.2,111
2010-03-04 15:15:07,22.0,-25.1,47.1,32.6,2.3,112
2010-03-04 15:20:07,22.0,-24.5,46.5,32.6,2.3,112
2010-03-04 15:25:07,22.2,-25.1,47.3,32.6,2.3,111
2010-03-04 15:30:07,22.1,-24.9,47.0,32.6,2.3,112
2010-03-04 15:35:07,22.2,-24.9,47.0,32.6,2.3,111
2010-03-04 15:40:07,22.3,-24.1,46.4,32.6,2.3,111
2010-03-04 15:45:07,22.5,-24.6,47.1,32.6,2.3,112
2010-03-04 15:50:07,22.4,-26.1,48.5,32.6,2.3,111
2010-03-04 15:55:07,22.0,-25.8,47.8,32.6,2.3,112
2010-03-04 16:00:07,21.9,-25.6,47.5,32.6,2.2,111
2010-03-04 16:05:07,21.9,-25.0,46.8,32.6,2.2,111
2010-03-04 16:10:07,22.0,-25.8,47.8,32.6,2.2,112
2010-03-04 16:15:07,21.8,-25.3,47.1,32.6,2.1,111
2010-03-04 16:20:07,21.7,-25.5,47.2,32.6,2.2,112
2010-03-04 16:25:07,21.5,-26.2,47.8,32.6,2.3,111
2010-03-04 16:30:07,21.4,-26.0,47.4,32.6,2.3,112
2010-03-04 16:35:07,21.1,-26.2,47.3,32.6,2.3,111
2010-03-04 16:40:07,20.9,-27.0,48.0,32.6,2.3,112
2010-03-04 16:45:07,20.7,-27.5,48.2,32.6,2.3,111
2010-03-04 16:50:07,20.4,-27.3,47.7,32.6,2.3,111
2010-03-04 16:55:07,20.3,-26.3,46.7,32.6,2.3,112
2010-03-04 17:00:07,20.4,-27.4,47.8,32.6,2.3,111
2010-03-04 17:05:07,20.2,-27.8,48.0,32.6,2.3,112
2010-03-04 17:10:07,20.0,-27.4,47.4,32.5,2.3,111
2010-03-04 17:15:07,19.9,-27.6,47.5,32.5,2.3,111
2010-03-04 17:20:07,19.7,-28.0,47.8,32.5,2.3,112
2010-03-04 17:25:07,19.6,-28.4,47.9,32.5,2.3,111
2010-03-04 17:30:07,19.4,-28.5,47.9,32.4,2.3,111
2010-03-04 17:35:07,19.1,-29.1,48.1,32.3,2.5,111
2010-03-04 17:40:07,18.7,-29.3,48.0,32.2,2.3,112
2010-03-04 17:45:07,18.3,-29.8,48.1,32.0,2.3,112
2010-03-04 17:50:07,18.1,-29.9,47.9,31.6,2.1,111
2010-03-04 17:55:07,17.8,-29.7,47.6,31.1,1.9,111
2010-03-04 18:00:07,17.6,-29.8,47.4,30.4,2.2,112
2010-03-04 18:05:07,17.5,-29.7,47.2,29.1,2.3,111
2010-03-04 18:10:07,17.4,-29.9,47.3,26.8,2.3,112
2010-03-04 18:15:07,17.3,-29.9,47.2,22.8,2.3,112
2010-03-04 18:20:07,17.3,-30.0,47.2,17.3,2.3,112
2010-03-04 18:25:07,17.2,-30.1,47.4,11.5,2.3,111
2010-03-04 18:30:07,17.2,-30.2,47.3,6.8,2.3,112
2010-03-04 18:35:07,17.0,-30.3,47.3,3.7,2.3,112
2010-03-04 18:40:07,16.8,-30.5,47.3,1.9,2.3,111
2010-03-04 18:45:07,16.2,-30.6,46.9,1.0,2.5,111
2010-03-04 18:50:07,16.1,-30.6,46.7,0.5,2.5,112
2010-03-04 18:55:07,16.0,-30.5,46.5,0.2,2.6,111
2010-03-04 19:00:07,15.9,-30.6,46.5,0.1,2.6,111
2010-03-04 19:05:07,15.8,-31.1,46.9,0.0,2.6,112
2010-03-04 19:10:07,15.8,-31.1,46.9,0.0,2.5,111
2010-03-04 19:15:07,15.8,-31.2,46.9,0.0,2.4,112
2010-03-04 19:20:07,15.7,-31.3,47.0,0.0,2.3,111
2010-03-04 19:25:07,15.6,-31.1,46.7,0.0,2.5,112
2010-03-04 19:30:07,15.6,-31.2,46.7,0.0,2.6,111
2010-03-04 19:35:07,15.6,-31.2,46.7,0.0,2.6,111
2010-03-04 19:40:07,15.6,-31.1,46.6,0.0,2.6,112
2010-03-04 19:45:07,15.5,-31.2,46.7,0.0,2.6,111
2010-03-04 19:50:07,15.2,-31.2,46.4,0.0,2.5,111
2010-03-04 19:55:07,15.4,-31.0,46.4,0.0,2.4,112
2010-03-04 20:00:07,15.4,-31.0,46.3,0.0,2.3,111
2010-03-04 20:05:07,15.3,-31.1,46.4,0.0,2.3,111
2010-03-04 20:10:07,15.3,-31.4,46.7,0.0,2.4,112
2010-03-04 20:15:07,15.3,-31.5,46.8,0.0,2.4,111
2010-03-04 20:20:07,15.3,-31.3,46.6,0.0,2.4,111
2010-03-04 20:25:07,15.5,-31.5,47.1,0.0,2.6,111
2010-03-04 20:30:07,15.6,-31.7,47.3,0.0,2.5,111
2010-03-04 20:35:07,15.6,-31.7,47.3,0.0,2.4,112
2010-03-04 20:40:07,15.5,-31.6,47.1,0.0,2.3,111
2010-03-04 20:45:07,15.5,-31.9,47.4,0.0,2.3,111
2010-03-04 20:50:07,15.4,-31.8,47.2,0.0,2.3,111
2010-03-04 20:55:07,15.3,-31.8,47.1,0.0,2.2,111
2010-03-04 21:00:07,15.3,-31.6,46.9,0.0,2.2,111
2010-03-04 21:05:07,15.4,-31.9,47.3,0.0,2.2,112
2010-03-04 21:10:07,15.4,-32.0,47.3,0.0,2.2,111
2010-03-04 21:15:07,15.4,-32.0,47.4,0.0,2.2,112
2010-03-04 21:20:07,15.4,-32.0,47.4,0.0,2.2,111
2010-03-04 21:25:07,15.3,-32.2,47.5,0.0,2.3,112
2010-03-04 21:30:07,15.3,-32.4,47.7,0.0,2.3,111
2010-03-04 21:35:07,15.2,-32.4,47.6,0.0,2.3,111
2010-03-04 21:40:07,15.2,-32.5,47.7,0.0,2.3,112
2010-03-04 21:45:07,15.2,-32.7,48.0,0.0,2.3,112
2010-03-04 21:50:07,15.2,-32.6,47.9,0.0,2.3,111
2010-03-04 21:55:07,15.2,-32.7,47.9,0.0,2.3,112
2010-03-04 22:00:07,15.2,-33.1,48.3,0.0,2.3,111
2010-03-04 22:05:07,15.0,-33.1,48.1,0.0,2.4,111
2010-03-04 22:10:07,14.5,-32.9,47.4,0.0,2.3,112
2010-03-04 22:15:07,14.2,-32.9,47.1,0.0,2.3,111
2010-03-04 22:20:07,14.1,-32.9,47.0,0.0,2.3,111
2010-03-04 22:25:07,14.0,-33.2,47.2,0.0,2.3,112
2010-03-04 22:30:07,14.0,-33.3,47.2,0.0,2.3,111
2010-03-04 22:35:07,13.9,-33.3,47.2,0.0,2.3,112
2010-03-04 22:40:07,13.9,-33.3,47.3,0.0,2.3,111
2010-03-04 22:45:07,14.3,-33.6,47.9,0.0,2.3,111
2010-03-04 22:50:07,14.4,-33.9,48.3,0.0,2.3,112
2010-03-04 22:55:07,14.2,-34.1,48.3,0.0,2.3,111
2010-03-04 23:00:07,14.5,-34.2,48.7,0.0,2.3,111
2010-03-04 23:05:07,14.4,-34.4,48.8,0.0,2.3,111
2010-03-04 23:10:07,14.4,-34.4,48.8,0.0,2.3,112
2010-03-04 23:15:07,14.4,-34.5,48.9,0.0,2.3,111
2010-03-04 23:20:07,14.4,-34.5,48.9,0.0,2.4,112
2010-03-04 23:25:07,14.3,-34.7,49.0,0.0,2.3,112
2010-03-04 23:30:07,14.3,-34.7,49.0,0.0,2.3,111
2010-03-04 23:35:07,14.2,-34.8,49.0,0.0,2.3,112
2010-03-04 23:40:07,14.2,-34.9,49.1,0.0,2.3,111
2010-03-04 23:45:07,14.2,-34.8,49.0,0.0,2.3,111
2010-03-04 23:50:07,14.2,-34.9,49.0,0.0,2.3,112
2010-03-04 23:55:07,14.1,-35.1,49.2,0.0,2.3,111
